,,PA_Meas_PMT16A,,PR_Meas_QMR101_102,,RH_Meas_QMH101,,SR_Meas_QMS101,,TA_Meas_QMH101,,GenWind,,GenWind,
time,status,PA,status,PR,status,RH,status,SR,status,TA,status,DirAvg,status,SpdAvg,
2010-01-14, 00:00:05,VALID,922.188,VALID,0,VALID,97.4349,VALID,0.107441,VALID,19.5048,VALID,224,VALID,0.328906,
2010-01-14, 00:01:05,VALID,922.208,VALID,0,VALID,97.4196,VALID,0.107441,VALID,19.4853,VALID,224,VALID,0.349219,
2010-01-14, 00:02:05,VALID,922.186,VALID,0,VALID,97.4273,VALID,0.107441,VALID,19.4644,VALID,224,VALID,0.728516,
2010-01-14, 00:03:05,VALID,922.172,VALID,0.2,VALID,97.4577,VALID,0.107441,VALID,19.4658,VALID,224,VALID,0.585938,
2010-01-14, 00:04:05,VALID,922.191,VALID,0,VALID,97.4501,VALID,0.107441,VALID,19.4839,VALID,224,VALID,0.147266,
2010-01-14, 00:05:05,VALID,922.21,VALID,0,VALID,97.4349,VALID,0,VALID,19.4853,VALID,224,VALID,0.645312,
2010-01-14, 00:06:05,VALID,922.16,VALID,0,VALID,97.4349,VALID,0,VALID,19.4658,VALID,224,VALID,0.532812,
2010-01-14, 00:07:05,VALID,922.144,VALID,0,VALID,97.4425,VALID,0.107441,VALID,19.4449,VALID,224,VALID,0.549609,
2010-01-14, 00:08:05,VALID,922.146,VALID,0,VALID,97.4349,VALID,0,VALID,19.4658,VALID,224,VALID,0.953125,
2010-01-14, 00:09:05,VALID,922.152,VALID,0,VALID,97.4425,VALID,0.107441,VALID,19.4658,VALID,224,VALID,0.889844,
2010-01-14, 00:10:05,VALID,922.144,VALID,0,VALID,97.4501,VALID,0.107441,VALID,19.4658,VALID,223,VALID,0.535156,
2010-01-14, 00:11:05,VALID,922.156,VALID,0,VALID,97.4501,VALID,0.107441,VALID,19.4463,VALID,224,VALID,0.601953,
2010-01-14, 00:12:05,VALID,922.142,VALID,0.2,VALID,97.4654,VALID,0.107441,VALID,19.4463,VALID,223,VALID,0.447656,
2010-01-14, 00:13:05,VALID,922.121,VALID,0,VALID,97.4425,VALID,0.107441,VALID,19.4463,VALID,223,VALID,1.01797,
2010-01-14, 00:14:05,VALID,922.113,VALID,0,VALID,97.4501,VALID,0.107441,VALID,19.4268,VALID,133,VALID,0.911328,
2010-01-14, 00:15:05,VALID,922.105,VALID,0,VALID,97.4577,VALID,0.107441,VALID,19.4463,VALID,148,VALID,0.860547,
2010-01-14, 00:16:05,VALID,922.083,VALID,0,VALID,97.4577,VALID,0.107441,VALID,19.4268,VALID,158,VALID,0.684766,
2010-01-14, 00:17:05,VALID,922.078,VALID,0,VALID,97.4577,VALID,0.107441,VALID,19.4268,VALID,158,VALID,0.598047,
2010-01-14, 00:18:05,VALID,922.07,VALID,0,VALID,97.4577,VALID,0,VALID,19.4268,VALID,158,VALID,0.346484,
2010-01-14, 00:19:05,VALID,922.049,VALID,0,VALID,97.473,VALID,0.107441,VALID,19.4074,VALID,158,VALID,0.815625,
2010-01-14, 00:20:05,VALID,922.04,VALID,0,VALID,97.4654,VALID,0.107441,VALID,19.4268,VALID,158,VALID,0.435937,
2010-01-14, 00:21:05,VALID,922.028,VALID,0,VALID,97.4577,VALID,0,VALID,19.4268,VALID,158,VALID,0.429688,
2010-01-14, 00:22:05,VALID,922.059,VALID,0,VALID,97.4425,VALID,0,VALID,19.4074,VALID,146,VALID,1.31992,
2010-01-14, 00:23:05,VALID,922.009,VALID,0,VALID,97.4273,VALID,0,VALID,19.3879,VALID,156,VALID,0.753125,
2010-01-14, 00:24:05,VALID,922.024,VALID,0,VALID,97.4349,VALID,0,VALID,19.4074,VALID,156,VALID,0.549609,
2010-01-14, 00:25:05,VALID,922.01,VALID,0,VALID,97.4577,VALID,0,VALID,19.3879,VALID,156,VALID,0.501172,
2010-01-14, 00:26:05,VALID,922.006,VALID,0,VALID,97.4425,VALID,0,VALID,19.3879,VALID,156,VALID,1.06523,
2010-01-14, 00:27:05,VALID,921.996,VALID,0.2,VALID,97.4349,VALID,0,VALID,19.3684,VALID,156,VALID,1.34297,
2010-01-14, 00:28:05,VALID,921.999,VALID,0,VALID,97.4425,VALID,0,VALID,19.3684,VALID,156,VALID,0.918359,
2010-01-14, 00:29:05,VALID,922.017,VALID,0,VALID,97.4501,VALID,0,VALID,19.3684,VALID,156,VALID,0.853125,
2010-01-14, 00:30:05,VALID,921.976,VALID,0,VALID,97.4349,VALID,0,VALID,19.3489,VALID,156,VALID,1.52852,
2010-01-14, 00:31:05,VALID,921.974,VALID,0,VALID,97.4501,VALID,0,VALID,19.3684,VALID,156,VALID,0.888672,
2010-01-14, 00:32:05,VALID,921.979,VALID,0,VALID,97.4196,VALID,0,VALID,19.3684,VALID,156,VALID,1.64102,
2010-01-14, 00:33:05,VALID,921.956,VALID,0,VALID,97.3891,VALID,0,VALID,19.3489,VALID,156,VALID,1.17188,
2010-01-14, 00:34:05,VALID,921.945,VALID,0,VALID,97.3891,VALID,0,VALID,19.3489,VALID,156,VALID,1.34297,
2010-01-14, 00:35:05,VALID,921.922,VALID,0,VALID,97.3968,VALID,0,VALID,19.3698,VALID,156,VALID,1.17461,
2010-01-14, 00:36:05,VALID,921.907,VALID,0,VALID,97.4044,VALID,0,VALID,19.3294,VALID,139,VALID,0.778906,
2010-01-14, 00:37:05,VALID,921.902,VALID,0,VALID,97.3739,VALID,0,VALID,19.3503,VALID,140,VALID,0.8875,
2010-01-14, 00:38:05,VALID,921.877,VALID,0,VALID,97.351,VALID,0,VALID,19.3294,VALID,151,VALID,1.16133,
2010-01-14, 00:39:05,VALID,921.889,VALID,0,VALID,97.3434,VALID,0,VALID,19.3294,VALID,148,VALID,1.31094,
2010-01-14, 00:40:05,VALID,921.889,VALID,0,VALID,97.3281,VALID,0,VALID,19.2904,VALID,151,VALID,0.582031,
2010-01-14, 00:41:05,VALID,921.884,VALID,0,VALID,97.3129,VALID,0,VALID,19.3099,VALID,138,VALID,1.54297,
2010-01-14, 00:42:05,VALID,921.876,VALID,0,VALID,97.29,VALID,0,VALID,19.3099,VALID,168,VALID,1.08633,
2010-01-14, 00:43:05,VALID,921.855,VALID,0,VALID,97.2367,VALID,0,VALID,19.2904,VALID,146,VALID,1.10078,
2010-01-14, 00:44:05,VALID,921.831,VALID,0,VALID,97.2443,VALID,0,VALID,19.2904,VALID,134,VALID,1.11484,
2010-01-14, 00:45:05,VALID,921.816,VALID,0,VALID,97.2519,VALID,0,VALID,19.2904,VALID,134,VALID,0.371875,
2010-01-14, 00:46:05,VALID,921.805,VALID,0,VALID,97.2519,VALID,0,VALID,19.3099,VALID,134,VALID,0.352734,
2010-01-14, 00:47:05,VALID,921.789,VALID,0,VALID,97.1986,VALID,0,VALID,19.3113,VALID,159,VALID,0.96875,
2010-01-14, 00:48:05,VALID,921.772,VALID,0,VALID,97.1681,VALID,0,VALID,19.2709,VALID,175,VALID,0.719141,
2010-01-14, 00:49:05,VALID,921.756,VALID,0,VALID,97.1376,VALID,0,VALID,19.2709,VALID,186,VALID,1.18906,
2010-01-14, 00:50:05,VALID,921.722,VALID,0.2,VALID,97.1299,VALID,0,VALID,19.2709,VALID,186,VALID,0.476172,
2010-01-14, 00:51:05,VALID,921.721,VALID,0,VALID,97.0994,VALID,0,VALID,19.2709,VALID,187,VALID,0.470313,
2010-01-14, 00:52:05,VALID,921.704,VALID,0,VALID,97.1147,VALID,0,VALID,19.2723,VALID,186,VALID,0.785156,
2010-01-14, 00:53:05,VALID,921.719,VALID,0,VALID,97.069,VALID,0,VALID,19.2528,VALID,158,VALID,1.52578,
2010-01-14, 00:54:05,VALID,921.705,VALID,0,VALID,97.0232,VALID,0,VALID,19.2319,VALID,143,VALID,0.850391,
2010-01-14, 00:55:05,VALID,921.689,VALID,0,VALID,97.008,VALID,0,VALID,19.2124,VALID,143,VALID,1.00547,
2010-01-14, 00:56:05,VALID,921.683,VALID,0,VALID,96.9927,VALID,0,VALID,19.2124,VALID,140,VALID,1.08242,
2010-01-14, 00:57:05,VALID,921.672,VALID,0,VALID,96.9622,VALID,0,VALID,19.2334,VALID,126,VALID,1.27656,
2010-01-14, 00:58:05,VALID,921.658,VALID,0,VALID,96.9165,VALID,0,VALID,19.2348,VALID,126,VALID,0.701172,
2010-01-14, 00:59:05,VALID,921.655,VALID,0,VALID,96.9012,VALID,0,VALID,19.2139,VALID,126,VALID,0.519141,
2010-01-14, 01:00:05,VALID,921.63,VALID,0,VALID,96.886,VALID,0,VALID,19.1929,VALID,126,VALID,1.17266,
2010-01-14, 01:01:05,VALID,921.591,VALID,0.2,VALID,96.886,VALID,0,VALID,19.1929,VALID,125,VALID,0.699219,
2010-01-14, 01:02:05,VALID,921.593,VALID,0,VALID,96.8784,VALID,0.107441,VALID,19.1929,VALID,126,VALID,0.651563,
2010-01-14, 01:03:05,VALID,921.57,VALID,0,VALID,96.9089,VALID,0,VALID,19.1929,VALID,126,VALID,0.254687,
2010-01-14, 01:04:05,VALID,921.548,VALID,0,VALID,96.886,VALID,0,VALID,19.1929,VALID,126,VALID,0.285937,
2010-01-14, 01:05:05,VALID,921.561,VALID,0,VALID,96.886,VALID,0,VALID,19.1734,VALID,126,VALID,0.519531,
2010-01-14, 01:06:05,VALID,921.544,VALID,0,VALID,96.8555,VALID,0,VALID,19.1944,VALID,126,VALID,0.194141,
2010-01-14, 01:07:05,VALID,921.52,VALID,0,VALID,96.8784,VALID,0,VALID,19.1734,VALID,126,VALID,0.523438,
2010-01-14, 01:08:05,VALID,921.545,VALID,0,VALID,96.8631,VALID,0,VALID,19.1734,VALID,126,VALID,0.94375,
2010-01-14, 01:09:05,VALID,921.477,VALID,0,VALID,96.8784,VALID,0,VALID,19.1734,VALID,126,VALID,1.23398,
2010-01-14, 01:10:05,VALID,921.489,VALID,0,VALID,96.8936,VALID,0,VALID,19.1749,VALID,126,VALID,0.723828,
2010-01-14, 01:11:05,VALID,921.473,VALID,0,VALID,96.9165,VALID,0,VALID,19.1749,VALID,126,VALID,1.36016,
2010-01-14, 01:12:05,VALID,921.429,VALID,0,VALID,96.9241,VALID,0,VALID,19.1539,VALID,126,VALID,1.47148,
2010-01-14, 01:13:05,VALID,921.419,VALID,0,VALID,96.9165,VALID,0,VALID,19.1539,VALID,177,VALID,0.951953,
2010-01-14, 01:14:05,VALID,921.407,VALID,0,VALID,96.9622,VALID,0,VALID,19.1554,VALID,177,VALID,0.532422,
2010-01-14, 01:15:05,VALID,921.376,VALID,0,VALID,96.9698,VALID,0,VALID,19.1554,VALID,167,VALID,0.867969,
2010-01-14, 01:16:05,VALID,921.373,VALID,0,VALID,96.9698,VALID,0,VALID,19.1344,VALID,161,VALID,0.853906,
2010-01-14, 01:17:05,VALID,921.327,VALID,0.2,VALID,96.9698,VALID,0,VALID,19.1344,VALID,161,VALID,0.83125,
2010-01-14, 01:18:05,VALID,921.355,VALID,0,VALID,97.008,VALID,0,VALID,19.1554,VALID,161,VALID,1.11719,
2010-01-14, 01:19:05,VALID,921.341,VALID,0,VALID,97.008,VALID,0,VALID,19.1344,VALID,161,VALID,1.22383,
2010-01-14, 01:20:05,VALID,921.282,VALID,0,VALID,97.0385,VALID,0,VALID,19.1344,VALID,160,VALID,0.804297,
2010-01-14, 01:21:05,VALID,921.265,VALID,0,VALID,97.0308,VALID,0,VALID,19.1344,VALID,160,VALID,0.448047,
2010-01-14, 01:22:05,VALID,921.295,VALID,0,VALID,97.0537,VALID,0,VALID,19.1149,VALID,160,VALID,0.651172,
2010-01-14, 01:23:05,VALID,921.258,VALID,0,VALID,97.0613,VALID,0,VALID,19.0954,VALID,151,VALID,0.702344,
2010-01-14, 01:24:05,VALID,921.257,VALID,0,VALID,97.069,VALID,0,VALID,19.0954,VALID,151,VALID,0.771484,
2010-01-14, 01:25:05,VALID,921.239,VALID,0,VALID,97.0766,VALID,0,VALID,19.1149,VALID,151,VALID,0.567578,
2010-01-14, 01:26:05,VALID,921.235,VALID,0,VALID,97.0918,VALID,0,VALID,19.1164,VALID,128,VALID,0.613672,
2010-01-14, 01:27:05,VALID,921.213,VALID,0,VALID,97.0994,VALID,0,VALID,19.1164,VALID,128,VALID,0.491406,
2010-01-14, 01:28:05,VALID,921.239,VALID,0,VALID,97.0842,VALID,0,VALID,19.0954,VALID,128,VALID,0.853125,
2010-01-14, 01:29:05,VALID,921.237,VALID,0,VALID,97.0842,VALID,0,VALID,19.0954,VALID,163,VALID,1.27461,
2010-01-14, 01:30:05,VALID,921.223,VALID,0,VALID,97.1223,VALID,0,VALID,19.0759,VALID,166,VALID,1.18164,
2010-01-14, 01:31:05,VALID,921.213,VALID,0.2,VALID,97.1071,VALID,0,VALID,19.0759,VALID,133,VALID,0.608984,
2010-01-14, 01:32:05,VALID,921.185,VALID,0,VALID,97.1376,VALID,0,VALID,19.0759,VALID,133,VALID,0.642578,
2010-01-14, 01:33:05,VALID,921.157,VALID,0,VALID,97.1528,VALID,0,VALID,19.0759,VALID,133,VALID,0.627734,
2010-01-14, 01:34:05,VALID,921.136,VALID,0,VALID,97.1223,VALID,0,VALID,19.0774,VALID,133,VALID,0.855859,
2010-01-14, 01:35:05,VALID,921.122,VALID,0,VALID,97.0994,VALID,0,VALID,19.0369,VALID,133,VALID,0.880469,
2010-01-14, 01:36:05,VALID,921.145,VALID,0,VALID,97.0766,VALID,0,VALID,19.0384,VALID,133,VALID,1.03359,
2010-01-14, 01:37:05,VALID,921.129,VALID,0,VALID,97.0385,VALID,0,VALID,19.0369,VALID,133,VALID,0.855859,
2010-01-14, 01:38:05,VALID,921.105,VALID,0,VALID,97.008,VALID,0,VALID,19.0175,VALID,133,VALID,1.04531,
2010-01-14, 01:39:05,VALID,921.126,VALID,0,VALID,97.0156,VALID,0,VALID,19.0369,VALID,133,VALID,0.632813,
2010-01-14, 01:40:05,VALID,921.093,VALID,0,VALID,96.9622,VALID,0.107441,VALID,19.0175,VALID,133,VALID,1.13945,
2010-01-14, 01:41:05,VALID,921.097,VALID,0,VALID,96.9317,VALID,0,VALID,19.0579,VALID,133,VALID,0.520703,
2010-01-14, 01:42:05,VALID,921.084,VALID,0,VALID,96.8555,VALID,0,VALID,19.0175,VALID,131,VALID,1.07305,
2010-01-14, 01:43:05,VALID,921.075,VALID,0,VALID,96.7869,VALID,0.107441,VALID,19.0175,VALID,129,VALID,0.953516,
2010-01-14, 01:44:05,VALID,921.076,VALID,0.2,VALID,96.7411,VALID,0,VALID,19.0384,VALID,123,VALID,1.01797,
2010-01-14, 01:45:05,VALID,921.064,VALID,0,VALID,96.6725,VALID,0,VALID,19.0384,VALID,123,VALID,0.993359,
2010-01-14, 01:46:05,VALID,921.04,VALID,0,VALID,96.6115,VALID,0,VALID,19.0175,VALID,122,VALID,1.04688,
2010-01-14, 01:47:05,VALID,921.029,VALID,0,VALID,96.5811,VALID,0,VALID,18.998,VALID,122,VALID,1.03164,
2010-01-14, 01:48:05,VALID,921.009,VALID,0,VALID,96.5658,VALID,0.107441,VALID,19.0384,VALID,122,VALID,0.727734,
2010-01-14, 01:49:05,VALID,921.003,VALID,0,VALID,96.5887,VALID,0,VALID,19.0175,VALID,122,VALID,0.986328,
2010-01-14, 01:50:05,VALID,921.028,VALID,0,VALID,96.6039,VALID,0,VALID,19.0189,VALID,122,VALID,0.807422,
2010-01-14, 01:51:05,VALID,921.003,VALID,0,VALID,96.6115,VALID,0,VALID,19.0175,VALID,122,VALID,0.583984,
2010-01-14, 01:52:05,VALID,920.963,VALID,0,VALID,96.6192,VALID,0,VALID,18.998,VALID,122,VALID,0.892187,
2010-01-14, 01:53:05,VALID,920.974,VALID,0,VALID,96.6268,VALID,0,VALID,18.998,VALID,122,VALID,0.758594,
2010-01-14, 01:54:05,VALID,920.957,VALID,0,VALID,96.6497,VALID,0,VALID,18.998,VALID,123,VALID,0.720312,
2010-01-14, 01:55:05,VALID,920.934,VALID,0,VALID,96.6878,VALID,0,VALID,19.0189,VALID,195,VALID,1.11875,
2010-01-14, 01:56:05,VALID,920.91,VALID,0,VALID,96.7107,VALID,0,VALID,18.998,VALID,195,VALID,0.685938,
2010-01-14, 01:57:05,VALID,920.873,VALID,0.2,VALID,96.7107,VALID,0,VALID,18.9785,VALID,195,VALID,1.26719,
2010-01-14, 01:58:05,VALID,920.849,VALID,0,VALID,96.7564,VALID,0,VALID,18.9785,VALID,195,VALID,1.1625,
2010-01-14, 01:59:05,VALID,920.817,VALID,0,VALID,96.7869,VALID,0,VALID,18.9994,VALID,195,VALID,0.769922,
2010-01-14, 02:00:05,VALID,920.824,VALID,0,VALID,96.8098,VALID,0.107441,VALID,18.9785,VALID,195,VALID,0.751953,
2010-01-14, 02:01:05,VALID,920.81,VALID,0,VALID,96.8555,VALID,0,VALID,18.9994,VALID,195,VALID,0.388672,
2010-01-14, 02:02:05,VALID,920.801,VALID,0,VALID,96.8784,VALID,0,VALID,18.959,VALID,194,VALID,0.342969,
2010-01-14, 02:03:05,VALID,920.783,VALID,0,VALID,96.9241,VALID,0,VALID,18.9994,VALID,194,VALID,0.539063,
2010-01-14, 02:04:05,VALID,920.763,VALID,0.2,VALID,96.947,VALID,0,VALID,18.959,VALID,194,VALID,0.395703,
2010-01-14, 02:05:05,VALID,920.771,VALID,0,VALID,96.9698,VALID,0,VALID,18.9799,VALID,194,VALID,0.438281,
2010-01-14, 02:06:05,VALID,920.724,VALID,0,VALID,96.9851,VALID,0,VALID,18.9799,VALID,194,VALID,0.960547,
2010-01-14, 02:07:05,VALID,920.742,VALID,0,VALID,97.0003,VALID,0,VALID,18.9604,VALID,194,VALID,0.867969,
2010-01-14, 02:08:05,VALID,920.722,VALID,0,VALID,97.0156,VALID,0,VALID,18.9604,VALID,194,VALID,0.916797,
2010-01-14, 02:09:05,VALID,920.707,VALID,0,VALID,97.0385,VALID,0,VALID,18.9395,VALID,194,VALID,1.35586,
2010-01-14, 02:10:05,VALID,920.708,VALID,0,VALID,97.069,VALID,0,VALID,18.9604,VALID,194,VALID,1.03281,
2010-01-14, 02:11:05,VALID,920.695,VALID,0.2,VALID,97.069,VALID,0,VALID,18.9395,VALID,194,VALID,0.576172,
2010-01-14, 02:12:05,VALID,920.682,VALID,0,VALID,97.0918,VALID,0,VALID,18.9604,VALID,194,VALID,0.908594,
2010-01-14, 02:13:05,VALID,920.68,VALID,0,VALID,97.1223,VALID,0,VALID,18.92,VALID,194,VALID,0.948047,
2010-01-14, 02:14:05,VALID,920.636,VALID,0,VALID,97.1452,VALID,0,VALID,18.9214,VALID,194,VALID,0.232812,
2010-01-14, 02:15:05,VALID,920.621,VALID,0,VALID,97.1528,VALID,0,VALID,18.92,VALID,194,VALID,0.708594,
2010-01-14, 02:16:05,VALID,920.602,VALID,0,VALID,97.1681,VALID,0,VALID,18.9409,VALID,194,VALID,0.722266,
2010-01-14, 02:17:05,VALID,920.608,VALID,0,VALID,97.1757,VALID,0,VALID,18.92,VALID,194,VALID,0.961328,
2010-01-14, 02:18:05,VALID,920.604,VALID,0.2,VALID,97.1757,VALID,0,VALID,18.9019,VALID,191,VALID,1.04453,
2010-01-14, 02:19:05,VALID,920.578,VALID,0,VALID,97.1909,VALID,0,VALID,18.9214,VALID,168,VALID,0.626172,
2010-01-14, 02:20:05,VALID,920.557,VALID,0,VALID,97.1909,VALID,0,VALID,18.9214,VALID,165,VALID,0.924219,
2010-01-14, 02:21:05,VALID,920.554,VALID,0,VALID,97.1909,VALID,0,VALID,18.9214,VALID,148,VALID,0.585156,
2010-01-14, 02:22:05,VALID,920.532,VALID,0,VALID,97.1909,VALID,0,VALID,18.9019,VALID,148,VALID,0.731641,
2010-01-14, 02:23:05,VALID,920.518,VALID,0,VALID,97.2062,VALID,0,VALID,18.881,VALID,148,VALID,0.488672,
2010-01-14, 02:24:05,VALID,920.487,VALID,0,VALID,97.1833,VALID,0,VALID,18.9019,VALID,148,VALID,0.540234,
2010-01-14, 02:25:05,VALID,920.443,VALID,0.2,VALID,97.2062,VALID,0,VALID,18.9019,VALID,148,VALID,0.399219,
2010-01-14, 02:26:05,VALID,920.46,VALID,0,VALID,97.1757,VALID,0,VALID,18.881,VALID,148,VALID,0.33125,
2010-01-14, 02:27:05,VALID,920.469,VALID,0,VALID,97.1452,VALID,0,VALID,18.8629,VALID,148,VALID,1.14609,
2010-01-14, 02:28:05,VALID,920.46,VALID,0,VALID,97.1452,VALID,0,VALID,18.8629,VALID,188,VALID,1.20781,
2010-01-14, 02:29:05,VALID,920.405,VALID,0,VALID,97.1147,VALID,0,VALID,18.842,VALID,172,VALID,0.591016,
2010-01-14, 02:30:04,VALID,920.436,VALID,0,VALID,97.0918,VALID,0,VALID,18.842,VALID,172,VALID,1.00937,
2010-01-14, 02:31:04,VALID,920.423,VALID,0,VALID,97.0766,VALID,0,VALID,18.842,VALID,172,VALID,0.83125,
2010-01-14, 02:32:04,VALID,920.422,VALID,0,VALID,97.0766,VALID,0,VALID,18.842,VALID,152,VALID,0.828125,
2010-01-14, 02:33:04,VALID,920.435,VALID,0,VALID,97.0385,VALID,0,VALID,18.8434,VALID,146,VALID,0.659766,
2010-01-14, 02:34:04,VALID,920.401,VALID,0.2,VALID,97.0308,VALID,0,VALID,18.8629,VALID,145,VALID,0.56875,
2010-01-14, 02:35:04,VALID,920.387,VALID,0,VALID,97.0003,VALID,0,VALID,18.842,VALID,115,VALID,0.929688,
2010-01-14, 02:36:04,VALID,920.399,VALID,0,VALID,96.9698,VALID,0,VALID,18.8434,VALID,158,VALID,0.746875,
2010-01-14, 02:37:04,VALID,920.387,VALID,0,VALID,96.8936,VALID,0,VALID,18.8434,VALID,130,VALID,1.34922,
2010-01-14, 02:38:04,VALID,920.368,VALID,0,VALID,96.8021,VALID,0,VALID,18.8225,VALID,162,VALID,1.19531,
2010-01-14, 02:39:04,VALID,920.345,VALID,0,VALID,96.7411,VALID,0,VALID,18.8434,VALID,163,VALID,1.11836,
2010-01-14, 02:40:04,VALID,920.322,VALID,0.2,VALID,96.6725,VALID,0,VALID,18.8434,VALID,163,VALID,1.16602,
2010-01-14, 02:41:04,VALID,920.307,VALID,0,VALID,96.6115,VALID,0.107441,VALID,18.8434,VALID,163,VALID,1.06992,
2010-01-14, 02:42:04,VALID,920.317,VALID,0,VALID,96.5887,VALID,0,VALID,18.803,VALID,163,VALID,1.03945,
2010-01-14, 02:43:04,VALID,920.298,VALID,0,VALID,96.5658,VALID,0,VALID,18.824,VALID,163,VALID,0.907422,
2010-01-14, 02:44:04,VALID,920.313,VALID,0,VALID,96.5582,VALID,0,VALID,18.824,VALID,163,VALID,0.737891,
2010-01-14, 02:45:04,VALID,920.309,VALID,0,VALID,96.5658,VALID,0,VALID,18.7835,VALID,163,VALID,0.508594,
2010-01-14, 02:46:04,VALID,920.27,VALID,0,VALID,96.5811,VALID,0,VALID,18.8045,VALID,130,VALID,0.821484,
2010-01-14, 02:47:04,VALID,920.288,VALID,0,VALID,96.5734,VALID,0,VALID,18.8045,VALID,121,VALID,0.952734,
2010-01-14, 02:48:04,VALID,920.24,VALID,0,VALID,96.5429,VALID,0,VALID,18.785,VALID,121,VALID,1.15391,
2010-01-14, 02:49:04,VALID,920.202,VALID,0,VALID,96.5429,VALID,0,VALID,18.785,VALID,121,VALID,1.07695,
2010-01-14, 02:50:04,VALID,920.19,VALID,0,VALID,96.5734,VALID,0,VALID,18.785,VALID,121,VALID,0.767578,
2010-01-14, 02:51:04,VALID,920.177,VALID,0.2,VALID,96.5734,VALID,0,VALID,18.764,VALID,120,VALID,0.945313,
2010-01-14, 02:52:04,VALID,920.172,VALID,0,VALID,96.5506,VALID,0,VALID,18.7655,VALID,139,VALID,1.23242,
2010-01-14, 02:53:04,VALID,920.134,VALID,0,VALID,96.6192,VALID,0,VALID,18.7446,VALID,127,VALID,0.841797,
2010-01-14, 02:54:04,VALID,920.12,VALID,0,VALID,96.6268,VALID,0,VALID,18.746,VALID,139,VALID,1.4668,
2010-01-14, 02:55:04,VALID,920.108,VALID,0,VALID,96.6802,VALID,0,VALID,18.7251,VALID,132,VALID,1.45313,
2010-01-14, 02:56:04,VALID,920.071,VALID,0,VALID,96.7259,VALID,0,VALID,18.7251,VALID,147,VALID,1.50781,
2010-01-14, 02:57:04,VALID,920.09,VALID,0,VALID,96.7411,VALID,0,VALID,18.746,VALID,123,VALID,1.28047,
2010-01-14, 02:58:04,VALID,920.065,VALID,0,VALID,96.764,VALID,0,VALID,18.746,VALID,112,VALID,1.13711,
2010-01-14, 02:59:04,VALID,920.044,VALID,0,VALID,96.7716,VALID,0,VALID,18.746,VALID,136,VALID,1.17305,
2010-01-14, 03:00:04,VALID,920.025,VALID,0,VALID,96.7869,VALID,0,VALID,18.746,VALID,141,VALID,0.923437,
2010-01-14, 03:01:04,VALID,920.027,VALID,0,VALID,96.7869,VALID,0,VALID,18.7446,VALID,137,VALID,0.951953,
2010-01-14, 03:02:04,VALID,920.025,VALID,0,VALID,96.7793,VALID,0,VALID,18.746,VALID,131,VALID,1.10312,
2010-01-14, 03:03:04,VALID,920.006,VALID,0,VALID,96.7945,VALID,0,VALID,18.746,VALID,133,VALID,1.57539,
2010-01-14, 03:04:04,VALID,920.017,VALID,0,VALID,96.7945,VALID,0,VALID,18.746,VALID,110,VALID,1.40742,
2010-01-14, 03:05:04,VALID,920.003,VALID,0,VALID,96.8403,VALID,0,VALID,18.746,VALID,110,VALID,0.703516,
2010-01-14, 03:06:04,VALID,919.969,VALID,0,VALID,96.8403,VALID,0,VALID,18.7251,VALID,110,VALID,0.784766,
2010-01-14, 03:07:04,VALID,919.96,VALID,0,VALID,96.886,VALID,0,VALID,18.7251,VALID,109,VALID,0.982422,
2010-01-14, 03:08:04,VALID,919.963,VALID,0,VALID,96.9089,VALID,0,VALID,18.746,VALID,107,VALID,1.36211,
2010-01-14, 03:09:04,VALID,919.934,VALID,0,VALID,96.9012,VALID,0,VALID,18.7056,VALID,111,VALID,1.60742,
2010-01-14, 03:10:04,VALID,919.961,VALID,0,VALID,96.886,VALID,0,VALID,18.7251,VALID,126,VALID,1.08242,
2010-01-14, 03:11:04,VALID,919.925,VALID,0,VALID,96.8784,VALID,0,VALID,18.7251,VALID,143,VALID,0.953125,
2010-01-14, 03:12:04,VALID,919.906,VALID,0,VALID,96.9089,VALID,0,VALID,18.7251,VALID,143,VALID,1.0625,
2010-01-14, 03:13:04,VALID,919.923,VALID,0,VALID,96.8936,VALID,0,VALID,18.746,VALID,119,VALID,1.3293,
2010-01-14, 03:14:04,VALID,919.893,VALID,0,VALID,96.886,VALID,0.107441,VALID,18.7251,VALID,143,VALID,1.13867,
2010-01-14, 03:15:04,VALID,919.885,VALID,0,VALID,96.8326,VALID,0,VALID,18.7251,VALID,132,VALID,1.02813,
2010-01-14, 03:16:04,VALID,919.906,VALID,0,VALID,96.8403,VALID,0,VALID,18.7251,VALID,132,VALID,0.972656,
2010-01-14, 03:17:04,VALID,919.866,VALID,0,VALID,96.8403,VALID,0,VALID,18.7265,VALID,132,VALID,0.707422,
2010-01-14, 03:18:04,VALID,919.882,VALID,0,VALID,96.8784,VALID,0,VALID,18.746,VALID,127,VALID,0.405469,
2010-01-14, 03:19:04,VALID,919.889,VALID,0,VALID,96.8555,VALID,0.107441,VALID,18.746,VALID,156,VALID,0.668359,
2010-01-14, 03:20:04,VALID,919.885,VALID,0,VALID,96.886,VALID,0.107441,VALID,18.7251,VALID,141,VALID,1.22305,
2010-01-14, 03:21:04,VALID,919.879,VALID,0,VALID,96.9394,VALID,0,VALID,18.746,VALID,138,VALID,0.735156,
2010-01-14, 03:22:04,VALID,919.887,VALID,0,VALID,96.8936,VALID,0,VALID,18.7265,VALID,133,VALID,0.675391,
2010-01-14, 03:23:04,VALID,919.862,VALID,0,VALID,96.9241,VALID,0,VALID,18.7265,VALID,125,VALID,0.742188,
2010-01-14, 03:24:04,VALID,919.882,VALID,0,VALID,96.9012,VALID,0,VALID,18.7265,VALID,122,VALID,1.38125,
2010-01-14, 03:25:04,VALID,919.843,VALID,0,VALID,96.8174,VALID,0,VALID,18.7265,VALID,122,VALID,1.53437,
2010-01-14, 03:26:04,VALID,919.837,VALID,0,VALID,96.7259,VALID,0,VALID,18.7251,VALID,98,VALID,0.905859,
2010-01-14, 03:27:04,VALID,919.848,VALID,0,VALID,96.6573,VALID,0,VALID,18.746,VALID,109,VALID,1.62617,
2010-01-14, 03:28:04,VALID,919.843,VALID,0,VALID,96.5506,VALID,0,VALID,18.7655,VALID,126,VALID,1.87227,
2010-01-14, 03:29:04,VALID,919.882,VALID,0,VALID,96.4515,VALID,0,VALID,18.764,VALID,139,VALID,1.46133,
2010-01-14, 03:30:04,VALID,919.84,VALID,0,VALID,96.3219,VALID,0,VALID,18.7835,VALID,120,VALID,1.82187,
2010-01-14, 03:31:04,VALID,919.827,VALID,0,VALID,96.2304,VALID,0,VALID,18.8045,VALID,113,VALID,1.62188,
2010-01-14, 03:32:04,VALID,919.821,VALID,0,VALID,96.1846,VALID,0,VALID,18.7835,VALID,113,VALID,1.22227,
2010-01-14, 03:33:04,VALID,919.8,VALID,0,VALID,96.1618,VALID,0,VALID,18.8045,VALID,113,VALID,0.915234,
2010-01-14, 03:34:04,VALID,919.795,VALID,0,VALID,96.1236,VALID,0,VALID,18.785,VALID,120,VALID,1.7418,
2010-01-14, 03:35:04,VALID,919.774,VALID,0,VALID,96.055,VALID,0,VALID,18.785,VALID,136,VALID,1.57578,
2010-01-14, 03:36:04,VALID,919.764,VALID,0,VALID,96.0703,VALID,0.107441,VALID,18.7835,VALID,116,VALID,1.26484,
2010-01-14, 03:37:04,VALID,919.755,VALID,0,VALID,96.0093,VALID,0.107441,VALID,18.7626,VALID,127,VALID,1.51797,
2010-01-14, 03:38:04,VALID,919.714,VALID,0,VALID,96.0017,VALID,0.107441,VALID,18.7835,VALID,116,VALID,0.958984,
2010-01-14, 03:39:04,VALID,919.735,VALID,0,VALID,96.0093,VALID,0.107441,VALID,18.7835,VALID,101,VALID,1.1168,
2010-01-14, 03:40:04,VALID,919.705,VALID,0,VALID,96.0627,VALID,0.107441,VALID,18.764,VALID,101,VALID,0.954687,
2010-01-14, 03:41:04,VALID,919.708,VALID,0,VALID,96.0703,VALID,0.107441,VALID,18.764,VALID,122,VALID,1.5957,
2010-01-14, 03:42:04,VALID,919.7,VALID,0,VALID,96.0627,VALID,0.214882,VALID,18.764,VALID,110,VALID,1.45039,